Back to catalog

STARLINK-3176

AliveCommunicationsVLEO
NORAD 51106·PAYLOAD·🇺🇸 United States

Launched Jan 19, 2022 from Cape Canaveral Space Force Station

Loading…

Next Passes (next 24 hours)

TLE

FreshSource: CelesTrak SupGP

Epoch: Sep 14, 2026, 14:28 UTC

1 51106C 22005C   26257.60326389  .00053369  00000+0  15275-2 0  2575
2 51106  53.1580 153.3717 0001163 109.0282 247.2341 15.35361072    14

Track STARLINK-3176 in real time with AllMySat

Download on the App Store